| time (UTC) | temp F | wind direction | speed knots | gust knots | rain 1hr in | rain 24hr in | rain mn in | humidity % | barometer mb |
| 20260507081049 | 35 | 180 | 0.0 | 0.0 | 0.00 | 0.00 | 0.00 | 100 | |
| 20260506215026 | 75 | 180 | 0.0 | 0.0 | 0.00 | 0.00 | 0.00 | 100 | |
| 20260506213826 | 75 | 180 | 0.0 | 0.0 | 0.00 | 0.00 | 0.00 | 100 | |
| 20260506212625 | 75 | 180 | 0.0 | 0.0 | 0.00 | 0.00 | 0.00 | 100 | |
| 20260506211424 | 75 | 180 | 0.0 | 0.0 | 0.00 | 0.00 | 0.00 | 100 | |
| 20260506210224 | 75 | 180 | 0.0 | 0.0 | 0.00 | 0.00 | 0.00 | 100 | |
| 20260506204609 | 75 | 180 | 0.0 | 0.0 | 0.00 | 0.00 | 0.00 | 100 | |
| 20260506203408 | 75 | 180 | 0.0 | 0.0 | 0.00 | 0.00 | 0.00 | 100 | |
| 20260506131321 | 69 | 108 | 0.0 | 2.6 | 0.00 | 0.00 | 0.00 | 33 | |
| 20260506130320 | 67 | 88 | 0.0 | 1.7 | 0.00 | 0.00 | 0.00 | 36 | |
| 20260506130229 | 0 | 180 | 0.0 | 0.0 | 0.00 | 0.00 | 0.00 | 100 | |
| 20260506125320 | 62 | 95 | 0.0 | 4.3 | 0.00 | 0.00 | 0.00 | 42 | |
| 20260506124319 | 61 | 126 | 1.7 | 7.0 | 0.00 | 0.00 | 0.00 | 42 | |
| 20260506123319 | 59 | 122 | 0.0 | 4.3 | 0.00 | 0.00 | 0.00 | 47 | |
| 20260506121214 | 0 | 180 | 0.0 | 0.0 | 0.00 | 0.00 | 0.00 | 100 | |
| 20260506120015 | 0 | 180 | 0.0 | 0.0 | 0.00 | 0.00 | 0.00 | 100 | |
| 20260506115009 | 0 | 180 | 0.0 | 0.0 | 0.00 | 0.00 | 0.00 | 100 | |
| 20260506114813 | 0 | 180 | 0.0 | 0.0 | 0.00 | 0.00 | 0.00 | 100 | |
| 20260506112411 | 0 | 180 | 0.0 | 0.0 | 0.00 | 0.00 | 0.00 | 100 | |
| 20260506110012 | 0 | 180 | 0.0 | 0.0 | 0.00 | 0.00 | 0.00 | 100 | |
| 20260506105018 | 0 | 180 | 0.0 | 0.0 | 0.00 | 0.00 | 0.00 | 100 | |
| 20260506104809 | 0 | 180 | 0.0 | 0.0 | 0.00 | 0.00 | 0.00 | 100 | |
| 20260506103609 | 0 | 180 | 0.0 | 0.0 | 0.00 | 0.00 | 0.00 | 100 | |
| 20260506102408 | 0 | 180 | 0.0 | 0.0 | 0.00 | 0.00 | 0.00 | 100 | |
| 20260506094806 | 0 | 180 | 0.0 | 0.0 | 0.00 | 0.00 | 0.00 | 100 | |
| 20260506092406 | 0 | 180 | 0.0 | 0.0 | 0.00 | 0.00 | 0.00 | 100 |